Location: Bushey
(51.6333°N, 0.3667°W)
Time: 18:57:45
(UTC+00:00)

USA 308 - Pass Details

Date: 03 March 2021
Orbit: 568 x 576 km, 54.0° (Epoch: 16 April)

Event Time Altitude Azimuth Distance (km) Brightness Sun altitude
Rises 18:25:14 0° 260° (W) 2,775 8.7 -7.0°
Reaches altitude 10° 18:27:30 10° 262° (W) 1,877 7.3 -7.3°
Maximum altitude 18:31:46 72° 347° (NNW) 605 3.1 -8.0°
Enters shadow 18:36:00 10° 73° (ENE) 1,868 4.9 -8.6°
